User: anonymous   Login
Location: Caltech
(34.1382°N, 118.1253°W)
Time: 06:58:29
(UTC-07:00)
Language:

Cosmos 44 Rocket - Orbit

View from above orbital plane
View from above orbital plane
View from above satellite
View from above satellite

Ground track
Ground track

The orbit data is extracted from the following two-line orbital elements,

1 00877U 64053B   16119.21916290 -.00000004  00000-0  24431-4 0  9991
2 00877  65.0783  64.7872 0083672 273.0232  86.1295 14.59234988740962
Epoch (UTC): 28 April 2016 05:15:35
Eccentricity: 0.0083672
inclination: 65.0783°
perigee height: 636 km
apogee height: 755 km
right ascension of ascending node: 64.7872°
argument of perigee: 273.0232°
revolutions per day: 14.59234988
mean anomaly at epoch: 86.1295°
orbit number at epoch: 74096

The dashed part of the orbit path shows where the satellite is in the earth's shadow,  

DLR